Location: Unspecified
(0.0000°N, 0.0000°E)
Time: 11:00:47
(UTC+00:00)

Envisat - Pass Details

Date: 28 May 2020
Orbit: 764 x 766 km, 98.1° (Epoch: 30 May)

Event Time Altitude Azimuth Distance (km) Brightness Sun altitude
Rises 18:49:55 0° 195° (SSW) 3,230 6.2 -12.2°
Reaches altitude 10° 18:52:46 10° 211° (SSW) 2,301 5.6 -12.8°
Maximum altitude 18:56:25 20° 257° (WSW) 1,701 5.5 -13.7°
Drops below altitude 10° 19:00:05 10° 304° (NW) 2,294 6.8 -14.5°
Sets 19:02:56 0° 321° (NW) 3,216 7.4 -15.2°
